When you browse on this site, cookies collect data to enhance your experience and personalize the content and advertising you see.
Visit our Privacy Policy to learn more. By continuing to use the site, you agree to this use of cookies and data.
  • în România
  • Lista ţărilor
  • Pe 7 zile
  • Temperatura apei
  • Meteo pe hartă
  • Widget-uri
  • user-avatar
    Intrare

    Meteo pe oră la Stavanger

    Astăzi, 5 Iunie, Vineri

    Timp Temperatura Precipitaţii Vânt Presiune Umiditate
    00:00 +11°C° 0.2 mm 8 m/s 740 mmHg 80%
    01:00 +11°C° 0 mm 8 m/s 739 mmHg 78%
    02:00 +11°C° 0 mm 8 m/s 739 mmHg 76%
    03:00 +10°C° 0 mm 9 m/s 738 mmHg 75%
    04:00 +11°C° 0.1 mm 9 m/s 738 mmHg 76%
    05:00 +11°C° 0.1 mm 10 m/s 737 mmHg 77%
    06:00 +11°C° 0.1 mm 11 m/s 737 mmHg 78%
    07:00 +11°C° 0.4 mm 10 m/s 737 mmHg 78%
    08:00 +11°C° 0.4 mm 10 m/s 737 mmHg 78%
    09:00 +11°C° 0.4 mm 10 m/s 737 mmHg 78%
    10:00 +11°C° 0.8 mm 8 m/s 738 mmHg 79%
    11:00 +11°C° 0.8 mm 7 m/s 738 mmHg 80%
    12:00 +11°C° 0.8 mm 6 m/s 738 mmHg 80%
    13:00 +11°C° 0.3 mm 6 m/s 739 mmHg 79%
    14:00 +11°C° 0.3 mm 6 m/s 739 mmHg 79%
    15:00 +11°C° 0.3 mm 6 m/s 739 mmHg 78%
    16:00 +11°C° 0.1 mm 6 m/s 740 mmHg 77%
    17:00 +10°C° 0.1 mm 5 m/s 740 mmHg 76%
    18:00 +10°C° 0.1 mm 5 m/s 741 mmHg 75%
    19:00 +9°C° 0 mm 5 m/s 741 mmHg 79%
    20:00 +8°C° 0 mm 4 m/s 742 mmHg 83%
    21:00 +7°C° 0 mm 4 m/s 742 mmHg 86%
    22:00 +8°C° 0 mm 3 m/s 742 mmHg 87%
    23:00 +8°C° 0 mm 3 m/s 742 mmHg 87%

    Mâine, 6 Iunie, Sâmbătă

    Timp Temperatura Precipitaţii Vânt Presiune Umiditate
    00:00 +7°C° 0 mm 3 m/s 742 mmHg 87%
    01:00 +7°C° 0 mm 3 m/s 742 mmHg 86%
    02:00 +7°C° 0 mm 3 m/s 742 mmHg 85%
    03:00 +7°C° 0 mm 3 m/s 742 mmHg 84%
    04:00 +9°C° 0 mm 3 m/s 742 mmHg 77%
    05:00 +10°C° 0 mm 3 m/s 742 mmHg 69%
    06:00 +13°C° 0 mm 2 m/s 742 mmHg 62%
    07:00 +13°C° 0 mm 3 m/s 742 mmHg 57%
    08:00 +14°C° 0 mm 3 m/s 742 mmHg 52%
    09:00 +16°C° 0 mm 3 m/s 742 mmHg 47%
    10:00 +15°C° 0 mm 4 m/s 742 mmHg 49%
    11:00 +16°C° 0 mm 5 m/s 742 mmHg 52%
    12:00 +16°C° 0 mm 6 m/s 742 mmHg 54%
    13:00 +15°C° 0 mm 6 m/s 742 mmHg 59%
    14:00 +15°C° 0 mm 6 m/s 742 mmHg 64%
    15:00 +14°C° 0 mm 6 m/s 742 mmHg 69%
    16:00 +13°C° 0.2 mm 6 m/s 743 mmHg 76%
    17:00 +13°C° 0.2 mm 5 m/s 743 mmHg 82%
    18:00 +12°C° 0.2 mm 5 m/s 743 mmHg 88%
    19:00 +11°C° 0.2 mm 4 m/s 743 mmHg 90%
    20:00 +11°C° 0.2 mm 4 m/s 744 mmHg 92%
    21:00 +11°C° 0.2 mm 3 m/s 744 mmHg 93%
    22:00 +11°C° 0.1 mm 3 m/s 744 mmHg 94%
    23:00 +10°C° 0.1 mm 3 m/s 745 mmHg 94%

    Poimâine, 7 Iunie, Duminică

    Timp Temperatura Precipitaţii Vânt Presiune Umiditate
    00:00 +10°C° 0.1 mm 3 m/s 745 mmHg 95%
    01:00 +10°C° 0.3 mm 3 m/s 745 mmHg 93%
    02:00 +10°C° 0.3 mm 4 m/s 746 mmHg 92%
    03:00 +10°C° 0.3 mm 4 m/s 746 mmHg 91%
    04:00 +10°C° 0.5 mm 4 m/s 746 mmHg 89%
    05:00 +10°C° 0.5 mm 4 m/s 747 mmHg 87%
    06:00 +11°C° 0.5 mm 4 m/s 747 mmHg 84%
    07:00 +11°C° 0.1 mm 4 m/s 748 mmHg 81%
    08:00 +12°C° 0.1 mm 4 m/s 749 mmHg 77%
    09:00 +12°C° 0.1 mm 3 m/s 749 mmHg 74%
    10:00 +13°C° 0 mm 3 m/s 750 mmHg 72%
    11:00 +13°C° 0 mm 3 m/s 750 mmHg 70%
    12:00 +14°C° 0 mm 2 m/s 751 mmHg 67%
    13:00 +14°C° 0.1 mm 2 m/s 751 mmHg 69%
    14:00 +14°C° 0.1 mm 2 m/s 751 mmHg 71%
    15:00 +14°C° 0.1 mm 2 m/s 751 mmHg 73%
    16:00 +14°C° 0.1 mm 2 m/s 752 mmHg 74%
    17:00 +14°C° 0.1 mm 2 m/s 752 mmHg 76%
    18:00 +14°C° 0.1 mm 2 m/s 752 mmHg 77%
    19:00 +13°C° 0 mm 1 m/s 753 mmHg 82%
    20:00 +11°C° 0 mm 1 m/s 753 mmHg 87%
    21:00 +10°C° 0 mm 1 m/s 754 mmHg 91%
    22:00 +10°C° 0 mm 1 m/s 754 mmHg 92%
    23:00 +10°C° 0 mm 1 m/s 754 mmHg 92%

    8 Iunie, Luni

    Timp Temperatura Precipitaţii Vânt Presiune Umiditate
    00:00 +10°C° 0 mm 1 m/s 754 mmHg 92%
    01:00 +9°C° 0 mm 1 m/s 755 mmHg 91%
    02:00 +9°C° 0 mm 1 m/s 755 mmHg 91%
    03:00 +9°C° 0 mm 1 m/s 755 mmHg 91%
    04:00 +11°C° 0 mm 1 m/s 756 mmHg 85%
    05:00 +12°C° 0 mm 2 m/s 756 mmHg 79%
    06:00 +14°C° 0 mm 2 m/s 756 mmHg 73%
    07:00 +14°C° 0 mm 3 m/s 757 mmHg 70%
    08:00 +14°C° 0 mm 4 m/s 757 mmHg 68%
    09:00 +15°C° 0 mm 4 m/s 758 mmHg 66%
    10:00 +15°C° 0 mm 5 m/s 758 mmHg 68%
    11:00 +15°C° 0 mm 5 m/s 758 mmHg 71%
    12:00 +14°C° 0 mm 5 m/s 759 mmHg 73%
    13:00 +14°C° 0 mm 5 m/s 759 mmHg 73%
    14:00 +14°C° 0 mm 6 m/s 759 mmHg 73%
    15:00 +14°C° 0 mm 6 m/s 759 mmHg 73%
    16:00 +14°C° 0 mm 6 m/s 759 mmHg 75%
    17:00 +13°C° 0 mm 6 m/s 760 mmHg 77%
    18:00 +13°C° 0 mm 6 m/s 760 mmHg 79%
    19:00 +11°C° 0 mm 6 m/s 760 mmHg 84%
    20:00 +10°C° 0 mm 6 m/s 761 mmHg 88%
    21:00 +10°C° 0 mm 6 m/s 761 mmHg 92%
    22:00 +9°C° 0 mm 6 m/s 761 mmHg 93%
    23:00 +9°C° 0 mm 6 m/s 762 mmHg 93%

    9 Iunie, Marţi

    Timp Temperatura Precipitaţii Vânt Presiune Umiditate
    00:00 +9°C° 0 mm 6 m/s 762 mmHg 94%
    01:00 +9°C° 0 mm 5 m/s 762 mmHg 94%
    02:00 +9°C° 0 mm 5 m/s 762 mmHg 94%
    03:00 +9°C° 0 mm 5 m/s 762 mmHg 94%
    04:00 +10°C° 0 mm 4 m/s 762 mmHg 91%
    05:00 +11°C° 0 mm 4 m/s 763 mmHg 87%
    06:00 +12°C° 0 mm 3 m/s 763 mmHg 84%
    07:00 +13°C° 0 mm 3 m/s 763 mmHg 78%
    08:00 +14°C° 0 mm 3 m/s 763 mmHg 71%
    09:00 +17°C° 0 mm 3 m/s 764 mmHg 65%
    10:00 +18°C° 0 mm 4 m/s 764 mmHg 63%
    11:00 +18°C° 0 mm 4 m/s 764 mmHg 61%
    12:00 +19°C° 0 mm 4 m/s 764 mmHg 59%
    13:00 +19°C° 0 mm 4 m/s 764 mmHg 60%
    14:00 +19°C° 0 mm 4 m/s 764 mmHg 61%
    15:00 +19°C° 0 mm 4 m/s 764 mmHg 62%
    16:00 +17°C° 0 mm 5 m/s 765 mmHg 65%
    17:00 +17°C° 0 mm 5 m/s 765 mmHg 69%
    18:00 +16°C° 0 mm 5 m/s 765 mmHg 72%
    19:00 +15°C° 0 mm 4 m/s 765 mmHg 79%
    20:00 +13°C° 0 mm 4 m/s 766 mmHg 86%
    21:00 +12°C° 0 mm 3 m/s 766 mmHg 93%
    22:00 +11°C° 0 mm 3 m/s 766 mmHg 93%
    23:00 +11°C° 0 mm 3 m/s 766 mmHg 92%

    10 Iunie, Miercuri

    Timp Temperatura Precipitaţii Vânt Presiune Umiditate
    00:00 +11°C° 0 mm 3 m/s 766 mmHg 92%
    01:00 +11°C° 0 mm 3 m/s 766 mmHg 90%
    02:00 +11°C° 0 mm 3 m/s 766 mmHg 89%
    03:00 +11°C° 0 mm 3 m/s 766 mmHg 87%
    04:00 +13°C° 0 mm 3 m/s 766 mmHg 82%
    05:00 +16°C° 0 mm 3 m/s 767 mmHg 76%
    06:00 +17°C° 0 mm 3 m/s 767 mmHg 70%
    07:00 +19°C° 0 mm 3 m/s 767 mmHg 63%
    08:00 +20°C° 0 mm 3 m/s 767 mmHg 57%
    09:00 +22°C° 0 mm 3 m/s 768 mmHg 50%
    10:00 +22°C° 0 mm 3 m/s 768 mmHg 50%
    11:00 +22°C° 0 mm 3 m/s 768 mmHg 49%
    12:00 +23°C° 0 mm 4 m/s 768 mmHg 49%
    13:00 +22°C° 0 mm 4 m/s 768 mmHg 51%
    14:00 +22°C° 0 mm 4 m/s 768 mmHg 52%
    15:00 +22°C° 0 mm 4 m/s 768 mmHg 54%
    16:00 +21°C° 0 mm 4 m/s 768 mmHg 57%
    17:00 +20°C° 0 mm 4 m/s 768 mmHg 61%
    18:00 +20°C° 0 mm 4 m/s 768 mmHg 65%
    19:00 +18°C° 0 mm 4 m/s 768 mmHg 71%
    20:00 +17°C° 0 mm 4 m/s 768 mmHg 78%
    21:00 +14°C° 0 mm 3 m/s 769 mmHg 85%
    22:00 +14°C° 0 mm 3 m/s 768 mmHg 83%
    23:00 +14°C° 0 mm 3 m/s 768 mmHg 81%
    Arată mai mult